map of MCP home
MCP - Airport
Location
City:  Macapá, Pará, Brazil
Name:Alberto Alcolumbre International Airport
ICAO:SBMQ
IATA:MCP

Details
Type:Airport (Aerodrome, Airfield)
Use:Public/Civil, International (customs port of entry)
Latitude:0°03'02"N (0.050664)
Longitude:51°04'20"W (-51.072177)
Datum:WGS 1984
Elevation:56 ft (17 m)
Variation:19.33°W (WMM2015 magnetic declination)
-0.04° annual change
Runways:1
Longest:6890 × 148 ft (2100 × 45 m), paved

Time
Time Zone:UTC-3
Local Time:

Weather
METAR:SBMQ 230000Z 01006KT CAVOK 26/26 Q1013
TAF:SBMQ 221600Z 2218/2318 02007KT 9999 BKN015 FEW025TCU TN23/2306Z TX28/2316Z PROB30 2219/2221 3000 RA BKN010 FEW025TCU
BECMG 2223/2301 SCT010
BECMG 2306/2308 BKN006
BECMG 2311/2313 BKN015
RMK PCY

Related Locations
Nearby:
Farthest:GEB: 12414 mi / 19979 km
Gebe, Gebe Island, ML, ID

Find:

   beyond  
but within

Other Information
Maps:
NOTAMs:
Links:
Sources:

  
flag of Brazil
flag of Pará
flag of Macapá
  

Sectional Chart

Flight Planning
at skyvector.com

Satellite Image

Google Maps Satellite view

 

Copyright © 2004-2017 Karl L. Swartz. All rights reserved.
The Great Circle Mapper name and logo are trademarks of the Great Circle Mapper.
All other trademarks mentioned herein belong to their respective owners.
Please see credits for attibutions and further copyright information.

  Follow gcmap on Facebook Follow gcmap on Twitter Follow gcmap on Google+ GCmap on LinkedIn

hCard Microformat

Geo Microformat